Weather History for Marion, IN

Change the Weather History Date:

Wednesday, September 5, 2012

  Actual Average (KMIE) Record (KMIE)
Temperature  
Mean Temperature 72 °F 70 °F  
Max Temperature 80 °F 81 °F 93 °F (2007)
Min Temperature 63 °F 58 °F 41 °F (1974)
Degree Days  
Heating Degree Days 0 1  
Month to date heating degree days 5  
Since 1 July heating degree days 15  
Cooling Degree Days 6 5  
Month to date cooling degree days 29  
Year to date cooling degree days 863  
Growing Degree Days 22 (Base 50)    
Moisture  
Dew Point 67 °F    
Average Humidity 89    
Maximum Humidity 97    
Minimum Humidity 67    
Precipitation  
Precipitation 0.67 in 0.11 in 0.70 in (1971)
Month to date precipitation 0.52  
Year to date precipitation 28.43  
Sea Level Pressure  
Sea Level Pressure 29.88 in    
Wind  
Wind Speed 2 mph (SSW)    
Max Wind Speed 14 mph    
Max Gust Speed 26 mph    
Visibility 5 miles    
Events Fog , Rain    
T = Trace of Precipitation, MM = Missing Value Source: NWS Daily Summary

Daily Weather History Graph

Daily Weather History Graph

Search for Another Location

Airport:

Trip Planner

Search our weather history database for the weather conditions in past years. The results will help you decide how hot, cold, wet, or windy it might be!

Date:

Astronomy

Sep. 05, 2012 Rise Set
Actual Time 7:14 AM EDT 8:07 PM EDT
Civil Twilight 6:46 AM EDT 8:35 PM EDT
Nautical Twilight 6:13 AM EDT 9:07 PM EDT
Astronomical Twilight 5:39 AM EDT 9:42 PM EDT
Moon 10:35 PM EDT (9/5) 12:19 PM EDT (9/5)
Length of Visible Light 13h 48m
Length of Day
12h 53m
Waning Gibbous, 76% of the Moon is Illuminated
Sep 5
Waning Gibbous
Sep 8
Last Quarter
Sep 15
New
Sep 22
First Quarter
Sep 29
Full

Hourly Weather History & Observations

Time (EDT) Temp. Heat Index Dew Point Humidity Pressure Visibility Wind Dir Wind Speed Gust Speed Precip Events Conditions
12:15 AM 68.4 °F - 67.1 °F 96% 29.89 in 3.0 mi Calm Calm - N/A   Clear
12:55 AM 68.0 °F - 67.1 °F 97% 29.90 in 4.0 mi Calm Calm - N/A   Clear
1:15 AM 67.5 °F - 66.4 °F 96% 29.90 in 4.0 mi Calm Calm - N/A   Clear
1:35 AM 67.3 °F - 66.4 °F 97% 29.89 in 3.0 mi Calm Calm - N/A   Clear
1:55 AM 67.1 °F - 66.2 °F 97% 29.89 in 2.0 mi Calm Calm - N/A   Clear
2:15 AM 66.6 °F - 65.5 °F 96% 29.90 in 2.0 mi Calm Calm - N/A   Clear
2:35 AM 66.0 °F - 64.9 °F 96% 29.91 in 2.5 mi Calm Calm - N/A   Clear
2:55 AM 65.3 °F - 64.2 °F 96% 29.90 in 0.2 mi Calm Calm - N/A Fog Fog
3:15 AM 65.7 °F - 64.8 °F 97% 29.90 in 0.5 mi Calm Calm - N/A Fog Fog
3:35 AM 65.5 °F - 64.6 °F 97% 29.91 in 0.2 mi Calm Calm - N/A Fog Fog
3:55 AM 64.9 °F - 64.0 °F 97% 29.91 in 0.2 mi Calm Calm - N/A Fog Fog
4:15 AM 64.6 °F - 63.7 °F 97% 29.90 in 0.2 mi Calm Calm - N/A Fog Fog
4:35 AM 64.8 °F - 63.9 °F 97% 29.90 in 0.5 mi Calm Calm - N/A Fog Fog
4:55 AM 65.5 °F - 64.6 °F 97% 29.89 in 0.5 mi SSE 3.5 mph - N/A Fog Fog
5:15 AM 65.7 °F - 64.8 °F 97% 29.88 in 0.5 mi Calm Calm - N/A Fog Fog
5:35 AM 66.7 °F - 65.8 °F 97% 29.87 in 1.5 mi Calm Calm - N/A   Mostly Cloudy
5:55 AM 67.1 °F - 66.2 °F 97% 29.88 in 1.8 mi Calm Calm - N/A   Scattered Clouds
6:15 AM 67.1 °F - 66.2 °F 97% 29.88 in 2.5 mi Calm Calm - N/A   Clear
6:35 AM 66.6 °F - 65.7 °F 97% 29.88 in 0.5 mi Calm Calm - N/A Fog Fog
6:55 AM 66.2 °F - 65.3 °F 97% 29.89 in 0.2 mi Calm Calm - N/A Fog Fog
7:15 AM 66.9 °F - 66.0 °F 97% 29.90 in 0.2 mi Calm Calm - N/A Fog Fog
7:35 AM 67.1 °F - 66.2 °F 97% 29.89 in 0.2 mi Calm Calm - N/A Fog Fog
7:55 AM 67.1 °F - 66.2 °F 97% 29.90 in 0.2 mi Calm Calm - N/A Fog Fog
8:15 AM 67.6 °F - 66.7 °F 97% 29.90 in 0.2 mi Calm Calm - N/A Fog Fog
8:35 AM 68.5 °F - 67.6 °F 97% 29.90 in 1.0 mi Calm Calm - N/A   Overcast
8:55 AM 69.4 °F - 68.5 °F 97% 29.90 in 2.0 mi Calm Calm - N/A   Clear
9:15 AM 70.3 °F - 69.4 °F 97% 29.89 in 4.0 mi SSE 3.5 mph - N/A   Clear
9:35 AM 71.4 °F - 70.5 °F 97% 29.90 in 3.0 mi SSE 3.5 mph - N/A   Clear
9:55 AM 72.7 °F - 71.6 °F 96% 29.89 in 7.0 mi SSE 3.5 mph - N/A   Clear
10:15 AM 74.3 °F - 72.5 °F 94% 29.89 in 7.0 mi South 4.6 mph - N/A   Clear
10:35 AM 75.7 °F - 73.0 °F 91% 29.90 in 7.0 mi SSW 4.6 mph - N/A   Clear
10:55 AM 78.8 °F - 71.8 °F 79% 29.90 in 10.0 mi West 5.8 mph - N/A   Clear
11:15 AM 79.7 °F - 70.0 °F 72% 29.89 in 10.0 mi SSW 4.6 mph - N/A   Clear
11:35 AM 79.7 °F - 70.0 °F 72% 29.88 in 7.0 mi South 5.8 mph - N/A   Clear
11:55 AM 80.1 °F 83.2 °F 70.0 °F 71% 29.87 in 7.0 mi South 3.5 mph - N/A   Scattered Clouds
12:15 PM 77.5 °F - 67.6 °F 71% 29.91 in 4.0 mi NNW 13.8 mph 26.5 mph N/A Rain Light Rain
12:35 PM 68.7 °F - 64.4 °F 86% 29.93 in 0.2 mi North 10.4 mph 16.1 mph 0.63 in Rain Heavy Rain
1:15 PM 68.0 °F - 66.2 °F 94% 29.89 in 5.0 mi ENE 6.9 mph - N/A Rain Light Rain
1:35 PM 68.4 °F - 67.1 °F 96% 29.87 in 3.0 mi ESE 6.9 mph - 0.03 in Rain Rain
2:15 PM 69.4 °F - 68.4 °F 96% 29.82 in 5.0 mi East 10.4 mph - 0.01 in   Overcast
2:35 PM 71.1 °F - 68.9 °F 93% 29.85 in 7.0 mi ESE 9.2 mph - 0.01 in   Scattered Clouds
3:15 PM 74.8 °F - 67.8 °F 79% 29.85 in 10.0 mi SSW 3.5 mph - N/A   Clear
3:35 PM 76.3 °F - 68.0 °F 75% 29.85 in 10.0 mi South 4.6 mph - N/A   Clear
4:15 PM 77.2 °F - 65.8 °F 68% 29.84 in 10.0 mi South 5.8 mph - N/A   Clear
4:35 PM 77.0 °F - 66.2 °F 69% 29.84 in 7.0 mi South 5.8 mph - N/A   Clear
4:55 PM 76.5 °F - 67.1 °F 73% 29.85 in 7.0 mi SSW 8.1 mph - N/A   Clear
5:15 PM 75.7 °F - 66.9 °F 74% 29.84 in 7.0 mi SSW 8.1 mph 16.1 mph N/A   Clear
5:35 PM 75.4 °F - 67.1 °F 75% 29.83 in 10.0 mi SSW 10.4 mph - N/A   Clear
5:55 PM 75.2 °F - 67.3 °F 76% 29.83 in 10.0 mi South 8.1 mph - N/A   Clear
6:15 PM 75.9 °F - 65.7 °F 70% 29.84 in 7.0 mi SSW 11.5 mph - N/A   Clear
6:35 PM 76.5 °F - 64.8 °F 67% 29.85 in 7.0 mi SW 10.4 mph 16.1 mph N/A   Clear
6:55 PM 76.6 °F - 65.1 °F 67% 29.85 in 10.0 mi SW 10.4 mph - N/A   Clear
7:15 PM 75.0 °F - 65.3 °F 72% 29.84 in 10.0 mi SSW 6.9 mph - N/A   Clear
7:35 PM 74.3 °F - 65.8 °F 75% 29.84 in 10.0 mi SSW 4.6 mph - N/A   Clear
7:55 PM 73.6 °F - 66.2 °F 78% 29.84 in 10.0 mi SSW 3.5 mph - N/A   Clear
8:15 PM 72.7 °F - 66.2 °F 80% 29.84 in 7.0 mi South 4.6 mph - N/A   Clear
8:35 PM 71.4 °F - 66.2 °F 84% 29.85 in 7.0 mi Calm Calm - N/A   Clear
8:55 PM 69.8 °F - 65.8 °F 87% 29.86 in 10.0 mi Calm Calm - N/A   Clear
9:15 PM 68.5 °F - 65.8 °F 91% 29.87 in 7.0 mi Calm Calm - N/A   Clear
9:35 PM 67.5 °F - 65.3 °F 93% 29.88 in 7.0 mi Calm Calm - N/A   Clear
10:15 PM 66.4 °F - 64.4 °F 93% 29.87 in 7.0 mi SSW 3.5 mph - N/A   Clear
10:35 PM 66.0 °F - 64.2 °F 94% 29.86 in 7.0 mi WSW 3.5 mph - N/A   Clear
10:55 PM 64.8 °F - 63.3 °F 95% 29.87 in 5.0 mi Calm Calm - N/A   Clear
11:15 PM 64.0 °F - 62.8 °F 96% 29.86 in 4.0 mi West 3.5 mph - N/A   Clear
11:35 PM 63.9 °F - 62.8 °F 96% 29.87 in 3.0 mi WSW 4.6 mph - N/A   Clear
11:55 PM 65.8 °F - 64.8 °F 96% 29.87 in 5.0 mi SW 5.8 mph - N/A   Clear